AB1IG Weather Reports


Display with metric or nautical units.
time (UTC)temp
F
wind
direction
speed
MPH
gust
MPH
rain 1hr
in
rain 24hr
in
rain mn
in
humidity
%
barometer
mb
20220814084011 80 109 2.0 5.0 0.00 0.00 0.00 58 1010.6
20220814083513 80 118 2.0 5.0 0.00 0.00 0.00 58 1010.6
20220814083016 80 242 2.0 4.0 0.00 0.00 0.00 58 1010.6
20220814082510 80 138 2.0 5.0 0.00 0.00 0.00 58 1010.6
20220814082009 80 231 1.0 5.0 0.00 0.00 0.00 58 1010.6
20220814081509 80 169 1.0 4.0 0.00 0.00 0.00 58 1010.6
20220814081012 80 243 1.0 5.0 0.00 0.00 0.00 58 1010.6
20220814080508 80 243 2.0 5.0 0.00 0.00 0.00 59 1010.7
20220814080007 80 251 2.0 5.0 0.00 0.00 0.00 59 1010.7
20220814075507 80 200 2.0 5.0 0.00 0.00 0.00 59 1010.7
20220814075012 80 160 2.0 5.0 0.00 0.00 0.00 59 1010.7
20220814074505 80 212 2.0 5.0 0.00 0.00 0.00 59 1010.7
20220814074014 80 212 1.0 4.0 0.00 0.00 0.00 60 1010.7
20220814073509 80 225 0.0 4.0 0.00 0.00 0.00 60 1010.8
20220814073004 80 229 1.0 4.0 0.00 0.00 0.00 59 1010.8
20220814072506 80 217 0.0 4.0 0.00 0.00 0.00 59 1010.8
20220814072003 81 229 0.0 2.0 0.00 0.00 0.00 59 1010.8
20220814071511 81 236 0.0 3.0 0.00 0.00 0.00 59 1010.8
20220814071001 81 215 1.0 5.0 0.00 0.00 0.00 59 1010.8
20220814070602 81 275 1.0 5.0 0.00 0.00 0.00 59 1010.9
20220814070105 81 232 1.0 4.0 0.00 0.00 0.00 58 1011.1
20220814070005 81 65 1.0 4.0 0.00 0.00 0.00 58 1011.0
20220814065559 81 231 1.0 5.0 0.00 0.00 0.00 58 1011.1
20220814065058 81 231 2.0 5.0 0.00 0.00 0.00 58 1011.1
20220814064607 82 149 0.0 4.0 0.00 0.00 0.00 58 1011.1
20220814064058 82 208 1.0 4.0 0.00 0.00 0.00 57 1011.1
20220814063557 82 203 1.0 5.0 0.00 0.00 0.00 57 1011.0
20220814063108 82 249 1.0 5.0 0.00 0.00 0.00 57 1011.2
20220814062555 82 205 1.0 5.0 0.00 0.00 0.00 57 1011.2
20220814062055 82 186 2.0 8.0 0.00 0.00 0.00 57 1011.3
20220814061553 82 121 3.0 8.0 0.00 0.00 0.00 56 1011.3
20220814061101 82 185 1.0 5.0 0.00 0.00 0.00 56 1011.3
20220814060553 83 133 1.0 5.0 0.00 0.00 0.00 56 1011.3
20220814060125 83 140 1.0 8.0 0.00 0.00 0.00 56 1011.2
20220814055552 83 248 1.0 8.0 0.00 0.00 0.00 56 1011.2
20220814055052 83 179 2.0 6.0 0.00 0.00 0.00 55 1011.3
20220814054559 83 238 1.0 6.0 0.00 0.00 0.00 55 1011.2
20220814054052 83 218 2.0 7.0 0.00 0.00 0.00 55 1011.2
20220814053557 84 156 3.0 10.0 0.00 0.00 0.00 55 1011.2
20220814053057 83 134 3.0 9.0 0.00 0.00 0.00 55 1011.3
20220814052547 84 146 2.0 7.0 0.00 0.00 0.00 55 1011.3
20220814052048 84 162 2.0 8.0 0.00 0.00 0.00 55 1011.3
20220814051550 84 267 3.0 8.0 0.00 0.00 0.00 55 1011.3
20220814051048 84 114 2.0 7.0 0.00 0.00 0.00 54 1011.3
20220814050548 84 280 3.0 7.0 0.00 0.00 0.00 54 1011.3
20220814050046 84 115 2.0 8.0 0.00 0.00 0.00 53 1011.4
20220814045545 85 215 2.0 9.0 0.00 0.00 0.00 53 1011.5
20220814045048 85 222 4.0 9.0 0.00 0.00 0.00 52 1011.5
20220814044558 85 231 2.0 9.0 0.00 0.00 0.00 52 1011.5
20220814044043 85 160 3.0 9.0 0.00 0.00 0.00 51 1011.4
20220814043542 86 258 2.0 8.0 0.00 0.00 0.00 51 1011.3
20220814043050 86 128 1.0 4.0 0.00 0.00 0.00 51 1011.2
20220814042544 86 121 0.0 5.0 0.00 0.00 0.00 50 1011.2
20220814042048 86 123 1.0 6.0 0.00 0.00 0.00 49 1011.2
20220814041547 86 159 2.0 8.0 0.00 0.00 0.00 49 1011.2
20220814041042 87 177 4.0 8.0 0.00 0.00 0.00 48 1011.1
20220814040543 87 253 3.0 8.0 0.00 0.00 0.00 48 1011.1
20220814040040 87 155 2.0 8.0 0.00 0.00 0.00 47 1011.1
20220814035541 87 134 2.0 6.0 0.00 0.00 0.00 47 1011.1
20220814035045 87 149 0.0 3.0 0.00 0.00 0.00 48 1011.1
20220814034540 87 141 0.0 3.0 0.00 0.00 0.00 47 1011.1
20220814034041 87 152 1.0 3.0 0.00 0.00 0.00 47 1011.1
20220814033544 88 140 1.0 4.0 0.00 0.00 0.00 47 1011.1
20220814033045 88 132 1.0 4.0 0.00 0.00 0.00 47 1011.1
20220814032544 88 257 1.0 3.0 0.00 0.00 0.00 47 1011.1
20220814032044 88 127 0.0 3.0 0.00 0.00 0.00 47 1011.0
20220814031551 88 233 0.0 3.0 0.00 0.00 0.00 47 1011.0
20220814031040 88 120 1.0 3.0 0.00 0.00 0.00 47 1011.0
20220814030539 88 124 0.0 2.0 0.00 0.00 0.00 47 1011.0
20220814030041 88 262 0.0 2.0 0.00 0.00 0.00 47 1011.0
20220814025540 88 166 0.0 2.0 0.00 0.00 0.00 47 1010.9
20220814025045 88 117 0.0 3.0 0.00 0.00 0.00 47 1010.8
20220814024559 89 134 0.0 3.0 0.00 0.00 0.00 46 1010.8
20220814024037 89 132 0.0 2.0 0.00 0.00 0.00 46 1010.7
20220814023537 89 145 0.0 3.0 0.00 0.00 0.00 46 1010.6
20220814023141 89 142 1.0 3.0 0.00 0.00 0.00 45 1010.6
20220814022547 90 115 0.0 3.0 0.00 0.00 0.00 45 1010.5
20220814022038 90 131 1.0 5.0 0.00 0.00 0.00 44 1010.4
20220814021549 90 115 0.0 5.0 0.00 0.00 0.00 44 1010.4
20220814021037 90 131 1.0 5.0 0.00 0.00 0.00 44 1010.4
20220814020536 90 156 1.0 3.0 0.00 0.00 0.00 44 1010.3
20220814020053 90 140 0.0 3.0 0.00 0.00 0.00 44 1010.3
20220814015536 90 119 1.0 3.0 0.00 0.00 0.00 44 1010.3
20220814015034 91 128 0.0 3.0 0.00 0.00 0.00 44 1010.3
20220814014537 91 262 0.0 2.0 0.00 0.00 0.00 43 1010.2
20220814014036 91 261 0.0 4.0 0.00 0.00 0.00 42 1010.2
20220814013535 92 262 0.0 2.0 0.00 0.00 0.00 42 1010.2
20220814013037 92 260 0.0 2.0 0.00 0.00 0.00 41 1010.1
20220814012535 92 270 1.0 4.0 0.00 0.00 0.00 41 1010.1
20220814012035 93 156 1.0 4.0 0.00 0.00 0.00 41 1010.0
20220814011538 93 218 0.0 5.0 0.00 0.00 0.00 41 1010.1
20220814011042 93 236 2.0 5.0 0.00 0.00 0.00 40 1010.0
20220814010534 94 233 1.0 4.0 0.00 0.00 0.00 40 1010.0
20220814010036 94 233 1.0 3.0 0.00 0.00 0.00 39 1010.0
20220814005534 95 143 1.0 5.0 0.00 0.00 0.00 39 1010.0
20220814005033 95 124 1.0 5.0 0.00 0.00 0.00 39 1010.0
20220814004533 95 140 1.0 5.0 0.00 0.00 0.00 39 1010.0
20220814004033 96 124 2.0 6.0 0.00 0.00 0.00 39 1010.0
20220814003537 96 165 1.0 5.0 0.00 0.00 0.00 38 1009.9
20220814003049 96 131 1.0 5.0 0.00 0.00 0.00 37 1010.0
20220814002532 96 165 1.0 4.0 0.00 0.00 0.00 37 1010.0
20220814002035 96 253 1.0 4.0 0.00 0.00 0.00 37 1010.0
20220814001538 96 269 0.0 3.0 0.00 0.00 0.00 38 1009.9
20220814001038 96 93 0.0 4.0 0.00 0.00 0.00 38 1010.0
20220814000531 96 100 0.0 4.0 0.00 0.00 0.00 38 1010.0
20220814000106 96 140 0.0 3.0 0.00 0.00 0.00 38 1010.0
20220813235533 96 179 0.0 4.0 0.00 0.00 0.00 38 1010.0
20220813235033 96 162 1.0 5.0 0.00 0.00 0.00 38 1010.1
20220813234534 96 185 1.0 5.0 0.00 0.00 0.00 38 1010.1
20220813234033 96 129 2.0 5.0 0.00 0.00 0.00 38 1010.1
20220813233530 96 145 2.0 5.0 0.00 0.00 0.00 38 1010.1
20220813233058 96 211 1.0 5.0 0.00 0.00 0.00 38 1010.1
20220813232528 96 212 2.0 5.0 0.00 0.00 0.00 38 1010.2
20220813232030 96 119 1.0 4.0 0.00 0.00 0.00 38 1010.2
20220813231527 96 75 1.0 4.0 0.00 0.00 0.00 37 1010.3
20220813231026 96 124 0.0 7.0 0.00 0.00 0.00 38 1010.3
20220813230528 96 200 2.0 7.0 0.00 0.00 0.00 39 1010.4
20220813230026 96 124 1.0 3.0 0.00 0.00 0.00 39 1010.4
20220813225529 96 249 1.0 3.0 0.00 0.00 0.00 39 1010.4
20220813225034 95 91 1.0 4.0 0.00 0.00 0.00 39 1010.5
20220813224529 96 96 2.0 6.0 0.00 0.00 0.00 39 1010.5
20220813224027 95 170 2.0 7.0 0.00 0.00 0.00 39 1010.5
20220813223526 96 221 3.0 7.0 0.00 0.00 0.00 39 1010.5
20220813223029 96 152 2.0 4.0 0.00 0.00 0.00 39 1010.5
20220813222526 96 204 0.0 6.0 0.00 0.00 0.00 39 1010.6
20220813222023 96 126 2.0 6.0 0.00 0.00 0.00 38 1010.6
20220813221556 96 140 2.0 8.0 0.00 0.00 0.00 38 1010.6
20220813221023 97 232 3.0 8.0 0.00 0.00 0.00 39 1010.6
20220813220521 96 184 2.0 4.0 0.00 0.00 0.00 39 1010.7
20220813220027 96 201 1.0 3.0 0.00 0.00 0.00 39 1010.7
20220813215529 95 204 1.0 4.0 0.00 0.00 0.00 40 1010.8
20220813215020 95 218 0.0 4.0 0.00 0.00 0.00 40 1010.8
20220813214518 94 274 1.0 5.0 0.00 0.00 0.00 40 1010.9
20220813214024 95 219 0.0 5.0 0.00 0.00 0.00 40 1010.9
20220813213519 96 131 1.0 7.0 0.00 0.00 0.00 39 1010.9
20220813213033 96 180 2.0 8.0 0.00 0.00 0.00 38 1010.9
20220813212525 96 134 1.0 4.0 0.00 0.00 0.00 39 1011.0
20220813212019 96 198 0.0 6.0 0.00 0.00 0.00 40 1011.0
20220813211530 96 129 0.0 7.0 0.00 0.00 0.00 40 1011.1
20220813211017 97 280 1.0 5.0 0.00 0.00 0.00 39 1011.0
20220813210516 97 143 2.0 5.0 0.00 0.00 0.00 38 1011.0
20220813210016 97 238 0.0 4.0 0.00 0.00 0.00 39 1011.1
20220813205515 96 214 1.0 6.0 0.00 0.00 0.00 40 1011.1
20220813205015 96 240 1.0 7.0 0.00 0.00 0.00 39 1011.2
20220813204514 97 181 2.0 7.0 0.00 0.00 0.00 37 1011.3
20220813204013 98 235 1.0 4.0 0.00 0.00 0.00 38 1011.3
20220813203514 97 271 1.0 4.0 0.00 0.00 0.00 38 1011.3
20220813203029 97 141 1.0 9.0 0.00 0.00 0.00 39 1011.5
20220813202513 98 238 3.0 8.0 0.00 0.00 0.00 38 1011.6
20220813202016 98 203 2.0 8.0 0.00 0.00 0.00 36 1011.7
20220813201514 98 187 2.0 5.0 0.00 0.00 0.00 37 1011.7
20220813201012 98 108 1.0 9.0 0.00 0.00 0.00 38 1011.8
20220813200511 98 177 3.0 9.0 0.00 0.00 0.00 38 1011.9
20220813200007 97 257 1.0 5.0 0.00 0.00 0.00 39 1011.9
20220813195514 97 70 1.0 5.0 0.00 0.00 0.00 40 1012.1
20220813195006 96 234 2.0 6.0 0.00 0.00 0.00 39 1012.1
20220813194506 97 221 1.0 6.0 0.00 0.00 0.00 39 1012.2
20220813194004 97 129 1.0 5.0 0.00 0.00 0.00 41 1012.2
20220813193504 97 255 1.0 7.0 0.00 0.00 0.00 42 1012.3
20220813193007 96 289 1.0 4.0 0.00 0.00 0.00 42 1012.3
20220813192503 96 87 1.0 5.0 0.00 0.00 0.00 42 1012.5
20220813192003 96 243 1.0 9.0 0.00 0.00 0.00 41 1012.6
20220813191501 96 158 2.0 8.0 0.00 0.00 0.00 43 1012.6
20220813191106 96 262 0.0 5.0 0.00 0.00 0.00 42 1012.6
20220813190607 96 167 1.0 5.0 0.00 0.00 0.00 41 1012.7
20220813190100 97 203 2.0 6.0 0.00 0.00 0.00 41 1012.8
20220813185559 96 190 4.0 6.0 0.00 0.00 0.00 43 1012.8
20220813185057 95 159 1.0 8.0 0.00 0.00 0.00 43 1012.9
20220813184556 95 224 3.0 8.0 0.00 0.00 0.00 43 1012.9
20220813184058 93 1 1.0 6.0 0.00 0.00 0.00 47 1013.0
20220813183554 92 142 0.0 4.0 0.00 0.00 0.00 47 1013.1
20220813183128 93 29 0.0 4.0 0.00 0.00 0.00 46 1013.1
20220813182601 94 86 0.0 3.0 0.00 0.00 0.00 45 1013.1
20220813182054 95 240 1.0 7.0 0.00 0.00 0.00 45 1013.2
20220813181605 95 114 2.0 7.0 0.00 0.00 0.00 45 1013.1
20220813181050 95 279 2.0 6.0 0.00 0.00 0.00 46 1013.2
20220813180549 95 271 2.0 6.0 0.00 0.00 0.00 46 1013.2
20220813180051 94 114 1.0 6.0 0.00 0.00 0.00 48 1013.4
20220813175547 94 298 0.0 3.0 0.00 0.00 0.00 47 1013.4
20220813175044 94 279 0.0 3.0 0.00 0.00 0.00 48 1013.5
20220813174543 93 49 1.0 5.0 0.00 0.00 0.00 49 1013.6
20220813174045 92 192 2.0 6.0 0.00 0.00 0.00 49 1013.5
20220813173543 93 132 2.0 7.0 0.00 0.00 0.00 48 1013.5
20220813173049 92 158 3.0 7.0 0.00 0.00 0.00 49 1013.5
20220813172542 93 187 2.0 9.0 0.00 0.00 0.00 49 1013.7
20220813172041 92 295 2.0 6.0 0.00 0.00 0.00 51 1013.7
20220813171553 92 273 0.0 5.0 0.00 0.00 0.00 50 1013.7
20220813171043 93 139 2.0 8.0 0.00 0.00 0.00 50 1013.8
20220813170547 93 72 4.0 8.0 0.00 0.00 0.00 50 1013.9
20220813170040 93 207 2.0 6.0 0.00 0.00 0.00 50 1013.9
20220813165541 93 158 2.0 5.0 0.00 0.00 0.00 52 1014.0
20220813165038 92 308 1.0 7.0 0.00 0.00 0.00 52 1014.1
20220813164543 92 121 3.0 7.0 0.00 0.00 0.00 51 1014.2
20220813164038 92 214 2.0 7.0 0.00 0.00 0.00 52 1014.2
20220813163536 92 151 1.0 7.0 0.00 0.00 0.00 54 1014.4
20220813163055 91 351 1.0 7.0 0.00 0.00 0.00 54 1014.4
20220813162535 91 191 1.0 7.0 0.00 0.00 0.00 56 1014.5
20220813162035 90 159 3.0 7.0 0.00 0.00 0.00 56 1014.4
20220813161536 90 179 2.0 6.0 0.00 0.00 0.00 57 1014.4
20220813161031 89 91 3.0 7.0 0.00 0.00 0.00 57 1014.5
20220813160531 89 122 3.0 8.0 0.00 0.00 0.00 58 1014.5
20220813160044 89 121 2.0 6.0 0.00 0.00 0.00 58 1014.4
20220813155535 88 184 3.0 6.0 0.00 0.00 0.00 59 1014.5
20220813155031 88 122 1.0 7.0 0.00 0.00 0.00 60 1014.5
20220813154536 87 134 3.0 8.0 0.00 0.00 0.00 61 1014.6
20220813154026 87 159 3.0 8.0 0.00 0.00 0.00 61 1014.6
20220813153524 86 242 5.0 8.0 0.00 0.00 0.00 62 1014.5
20220813153038 86 79 3.0 8.0 0.00 0.00 0.00 62 1014.6
20220813152524 86 203 3.0 8.0 0.00 0.00 0.00 63 1014.7
20220813152035 86 187 4.0 10.0 0.00 0.00 0.00 64 1014.7
20220813151525 85 87 4.0 9.0 0.00 0.00 0.00 64 1014.7
20220813151019 85 194 4.0 8.0 0.00 0.00 0.00 65 1014.7
20220813150518 84 163 3.0 6.0 0.00 0.00 0.00 66 1014.7
20220813150021 84 176 3.0 7.0 0.00 0.00 0.00 66 1014.8
20220813145516 83 226 3.0 7.0 0.00 0.00 0.00 67 1014.7
20220813145015 83 142 2.0 7.0 0.00 0.00 0.00 68 1014.7
20220813144530 83 221 3.0 7.0 0.00 0.00 0.00 68 1014.7
20220813144013 83 218 2.0 8.0 0.00 0.00 0.00 68 1014.7
20220813143516 82 127 1.0 7.0 0.00 0.00 0.00 69 1014.6
20220813143011 82 218 3.0 7.0 0.00 0.00 0.00 70 1014.6
20220813142516 81 219 4.0 8.0 0.00 0.00 0.00 70 1014.6
20220813142009 81 280 2.0 8.0 0.00 0.00 0.00 70 1014.6
20220813141504 81 233 2.0 8.0 0.00 0.00 0.00 70 1014.7
20220813141002 81 205 3.0 8.0 0.00 0.00 0.00 70 1014.6
20220813140505 81 321 4.0 9.0 0.00 0.00 0.00 71 1014.7
20220813140001 80 170 3.0 7.0 0.00 0.00 0.00 71 1014.6
20220813135500 80 222 2.0 7.0 0.00 0.00 0.00 71 1014.6
20220813135100 80 131 3.0 9.0 0.00 0.00 0.00 72 1014.5
20220813134602 79 232 4.0 9.0 0.00 0.00 0.00 72 1014.5
20220813134105 79 205 3.0 8.0 0.00 0.00 0.00 72 1014.5
20220813133558 79 215 3.0 8.0 0.00 0.00 0.00 73 1014.4
20220813133100 79 179 3.0 8.0 0.00 0.00 0.00 73 1014.4
20220813132608 79 257 4.0 8.0 0.00 0.00 0.00 73 1014.3
20220813132100 79 195 2.0 7.0 0.00 0.00 0.00 73 1014.4
20220813131628 78 190 2.0 10.0 0.00 0.00 0.00 73 1014.3
20220813131057 78 8 4.0 7.0 0.00 0.00 0.00 73 1014.3
20220813130557 78 240 1.0 5.0 0.00 0.00 0.00 73 1014.3
20220813130057 78 169 2.0 5.0 0.00 0.00 0.00 73 1014.3
20220813125559 78 229 2.0 6.0 0.00 0.00 0.00 73 1014.3
20220813125055 78 239 2.0 6.0 0.00 0.00 0.00 73 1014.3
20220813124613 78 204 2.0 7.0 0.00 0.00 0.00 73 1014.2
20220813124056 78 251 3.0 7.0 0.00 0.00 0.00 73 1014.2
20220813123553 78 219 2.0 6.0 0.00 0.00 0.00 73 1014.2
20220813123054 78 159 1.0 6.0 0.00 0.00 0.00 73 1014.1
20220813122554 77 181 2.0 6.0 0.00 0.00 0.00 73 1014.1
20220813122057 77 211 2.0 5.0 0.00 0.00 0.00 73 1014.1
20220813121552 77 147 2.0 4.0 0.00 0.00 0.00 74 1014.1
20220813121051 77 166 2.0 5.0 0.00 0.00 0.00 74 1014.1
20220813120556 77 138 1.0 5.0 0.00 0.00 0.00 74 1014.0
20220813120053 77 207 2.0 5.0 0.00 0.00 0.00 73 1014.0
20220813115551 77 214 2.0 6.0 0.00 0.00 0.00 73 1013.9
20220813115058 77 239 2.0 6.0 0.00 0.00 0.00 73 1013.9
20220813114548 77 176 2.0 5.0 0.00 0.00 0.00 73 1013.9
20220813114046 77 153 2.0 5.0 0.00 0.00 0.00 72 1013.7
20220813113547 77 127 2.0 5.0 0.00 0.00 0.00 72 1013.7
20220813113050 77 160 2.0 5.0 0.00 0.00 0.00 72 1013.7
20220813112548 77 180 1.0 3.0 0.00 0.00 0.00 72 1013.6
20220813112045 78 195 1.0 6.0 0.00 0.00 0.00 71 1013.6
20220813111609 78 156 1.0 6.0 0.00 0.00 0.00 71 1013.6
20220813111050 78 224 2.0 7.0 0.00 0.00 0.00 71 1013.6
20220813110546 78 246 1.0 7.0 0.00 0.00 0.00 71 1013.5
20220813110058 78 260 2.0 10.0 0.00 0.00 0.00 71 1013.4
20220813105546 78 131 2.0 7.0 0.00 0.00 0.00 70 1013.4
20220813105042 78 215 2.0 6.0 0.00 0.00 0.00 70 1013.4
20220813104547 78 134 2.0 7.0 0.00 0.00 0.00 70 1013.4
20220813104044 78 195 3.0 7.0 0.00 0.00 0.00 70 1013.3
20220813103545 78 134 2.0 6.0 0.00 0.00 0.00 69 1013.3
20220813103042 78 221 3.0 6.0 0.00 0.00 0.00 69 1013.4
20220813102546 78 241 2.0 5.0 0.00 0.00 0.00 69 1013.4
20220813102043 78 216 2.0 5.0 0.00 0.00 0.00 69 1013.4
20220813101541 78 221 2.0 5.0 0.00 0.00 0.00 68 1013.4
20220813101039 78 217 2.0 7.0 0.00 0.00 0.00 68 1013.4
20220813100547 78 170 2.0 6.0 0.00 0.00 0.00 68 1013.5
20220813100042 78 149 2.0 6.0 0.00 0.00 0.00 68 1013.6
20220813095548 78 232 2.0 6.0 0.00 0.00 0.00 68 1013.5
20220813095037 78 210 2.0 5.0 0.00 0.00 0.00 67 1013.5
20220813094547 78 149 2.0 4.0 0.00 0.00 0.00 67 1013.6
20220813094037 78 179 2.0 6.0 0.00 0.00 0.00 67 1013.6
20220813093539 78 245 2.0 6.0 0.00 0.00 0.00 67 1013.5
20220813093109 78 72 2.0 4.0 0.00 0.00 0.00 67 1013.6
20220813092536 78 231 1.0 5.0 0.00 0.00 0.00 67 1013.6
20220813092044 78 238 1.0 5.0 0.00 0.00 0.00 66 1013.5
20220813091538 79 238 2.0 7.0 0.00 0.00 0.00 66 1013.6
20220813091037 79 184 1.0 6.0 0.00 0.00 0.00 66 1013.6
20220813090544 79 184 1.0 4.0 0.00 0.00 0.00 66 1013.5
20220813090052 79 214 1.0 5.0 0.00 0.00 0.00 66 1013.5
20220813085539 79 221 2.0 5.0 0.00 0.00 0.00 66 1013.5
20220813085035 79 226 1.0 4.0 0.00 0.00 0.00 66 1013.6
20220813084539 79 118 1.0 5.0 0.00 0.00 0.00 66 1013.6